Regional Weather Roundup
Issued by NWS

Home | Current Version | Previous Version | Text Only | Print | Product List | Glossary On
Versions: 1 2 3 4 5 6 7 8 9 10 11 12 13 14 15 16 17 18 19 20 21 22 23 24 25 26 27 28 29 30 31 32 33 34 35 36 37 38 39 40 41 42 43 44 45 46 47 48 49 50
000
ASUS43 KMKX 281000
RWRWI

WISCONSIN REGIONAL WEATHER ROUNDUP
NATIONAL WEATHER SERVICE MILWAUKEE/SULLIVAN WI
400 AM CST SUN DEC 28 2014

NOTE: "FAIR" INDICATES FEW OR NO CLOUDS BELOW 12,000 FEET WITH NO
SIGNIFICANT WEATHER AND/OR OBSTRUCTIONS TO VISIBILITY.

WIZ001-002-006>008-014>016-023>028-281100-
NORTHWEST WISCONSIN

CITY           SKY/WX    TMP DP  RH WIND       PRES   REMARKS
SUPERIOR ARPT  FLURRIES  21  15  80 SW6       30.05S WCI  13
ASHLAND        CLOUDY    18  12  77 SW9       30.03S WCI   7
HAYWARD        CLOUDY    15  11  83 SW5       30.03S WCI   8
SIREN          CLOUDY    14  10  86 CALM      30.06S
CUMBERLAND     CLOUDY    12   9  85 SW5       30.05S WCI   4
RICE LAKE      MOCLDY    11   9  88 CALM      30.08S
CHETEK         MOCLDY    11   8  86 CALM      30.07S
LADYSMITH      CLOUDY    11   9  90 SW6       30.05F WCI   2
EAU CLAIRE     CLOUDY    12   7  80 W5        30.09S WCI   4
MENOMONIE      CLOUDY    13   9  83 S3        30.08F
NEW RICHMOND   CLOUDY    12   9  85 SW3       30.09S
OSCEOLA        MOCLDY    11   9  94 S5        30.11F WCI   3
$$

WIZ003>005-009-010-017-018-281100-
NORTH CENTRAL WISCONSIN

CITY           SKY/WX    TMP DP  RH WIND       PRES   REMARKS
MANITOWISH WTR CLOUDY    10   8  92 W3        29.96F
ARBOR VITAE    CLOUDY    14  11  87 W3        29.97F
WOODRUFF       CLOUDY    14  11  87 W3        29.97F
RHINELANDER    PTCLDY     4   2  91 W6        29.98S WCI  -7
EAGLE RIVER    PTCLDY     9   5  86 W7        29.96S WCI  -3
LAND O LAKES   PTCLDY    12  10  89 W6        29.96S WCI   3
PHILLIPS       CLOUDY    10   7  89 CALM      30.00S
TOMAHAWK       CLEAR      4   2  88 CALM      30.01S
MEDFORD        MOCLDY     6   4  88 W5        30.02S WCI  -2
MERRILL        CLEAR      8   5  89 W3        30.02S
$$

WIZ029-030-035-036-043>047-281100-
CENTRAL WISCONSIN

CITY           SKY/WX    TMP DP  RH WIND       PRES   REMARKS
WAUSAU         CLEAR     10   6  84 W3        30.03S
MOSINEE        CLEAR     10   9  92 W8        30.05F WCI  -1
MARSHFIELD     CLEAR      8   4  83 W7        30.04F WCI  -3
STEVENS POINT  CLEAR     13   9  82 W5        30.07S WCI   5
WAUPACA        CLEAR     20  15  80 W7        30.08S WCI  11
WAUTOMA        NOT AVBL
WISC RAPIDS    CLEAR     14   9  80 W6        30.09F WCI   5
CAMP DOUGLAS   NOT AVBL
$$

WIZ011>013-019>022-031-037>040-048>050-281100-
NORTHEAST WISCONSIN

CITY           SKY/WX    TMP DP  RH WIND       PRES   REMARKS
ANTIGO         CLEAR      5   3  92 W6        30.00S WCI  -5
SHAWANO        CLEAR     20  15  80 W9        30.06S WCI   9
OCONTO         CLEAR     19  15  85 W9        30.05F WCI   8
STURGEON BAY   CLEAR     21  16  79 W10       30.05S WCI  10
GREEN BAY      CLEAR     23  17  78 W9        30.06F WCI  13
MANITOWOC      NOT AVBL
APPLETON       CLEAR     21  18  86 W9        30.07S WCI  11
CLINTONVILLE   CLEAR     19  12  73 W7        30.06F WCI  10
OSHKOSH        CLEAR     21  15  78 W7        30.08F WCI  12
$$

WIZ032>034-041-042-053>061-281100-
SOUTHWEST WISCONSIN

CITY           SKY/WX    TMP DP  RH WIND       PRES   REMARKS
LA CROSSE      CLEAR     14   9  80 S5        30.14F WCI   6
SPARTA         CLEAR     14  10  85 CALM      30.12F
VIROQUA        CLEAR     14  14  98 SW7       30.09F WCI   4
BOSCOBEL       CLEAR     16  11  80 S5        30.15F WCI   9
PRAIRIE DU CHI FAIR      18  12  79 W3        30.17S
PLATTEVILLE    CLEAR     16  13  88 CALM      30.14F
$$

WIZ056-057-062-063-064-067-068-281100-
SOUTH CENTRAL WISCONSIN

CITY           SKY/WX    TMP DP  RH WIND       PRES   REMARKS
REEDSBURG      CLEAR     17  10  76 W3        30.11S
BARABOO/DELLS  CLEAR     17  12  80 W3        30.10S
LONE ROCK      NOT AVBL
MINERAL POINT  CLEAR     19  14  79 W5        30.11S WCI  13
MADISON        CLEAR     20  14  77 SW3       30.11S
MIDDLETON      CLEAR     20  16  84 W7        30.12S WCI  11
WATERTOWN      CLEAR     22  19  90 W5        30.11R WCI  15
MONROE         CLEAR     19  18  93 W10       30.11S WCI   8
JANESVILLE     CLEAR     23  19  86 W6        30.12F WCI  16
$$

WIZ051-052-058>065-066-070>072-281100-
SOUTHEAST WISCONSIN

CITY           SKY/WX    TMP DP  RH WIND       PRES   REMARKS
MILWAUKEE      PTCLDY    26  18  71 W10       30.09S WCI  16
WAUKESHA       CLEAR     23  19  86 W9        30.10S WCI  13
MILWAUKEE/TIMM CLEAR     25  19  80 W9        30.10S WCI  15
RACINE         CLEAR     26  19  74 W9        30.11R WCI  17
BURLINGTON     CLEAR     23  19  87 W5        30.11R WCI  16
KENOSHA        CLEAR     25  20  81 W6        30.10R WCI  18
FOND DU LAC    CLEAR     22  16  78 SW7       30.09F WCI  13
SHEBOYGAN      CLEAR     23  18  81 W10       30.07F WCI  12
WEST BEND      CLEAR     23  18  80 W9        30.08S WCI  13
JUNEAU         CLEAR     20  18  91 W7        30.11S WCI  11
$$

LSZ147-162-281100-
LAKE SUPERIOR

STATION/POSITION TIME  TEMP    WIND        PRES    WAVE
                       AIR SEA DIR/SP/G            HT/PER
                 (UTC) (F)     (DEG/KT/KT) (MB)    (FT/S)
DEVILS ISLAND    0900   22     280/ 13/ 16 1017.6R
PORT WING        0940   23     290/ 13/ 18 1017.3R
SAXON HARBOR     0900   19     190/  6/  8 1016.9R
$$

LMZ867-665-643>646-281100-
LAKE MICHIGAN

STATION/POSITION TIME  TEMP    WIND        PRES    WAVE
                       AIR SEA DIR/SP/G            HT/PER
                 (UTC) (F)     (DEG/KT/KT) (MB)    (FT/S)
CHAMBERS ISLAND  0900   23     240/  9/ 13 1017.3S
NORTHPORT PIER   0901   24     280/  7/ 17 1016.9R
SISTER BAY       0828          290/ 18/ 21   N/A
ALGOMA LAKESHORE 0845          320/  9/ 17   N/A
KEWAUNEE LAKESHO 0900   24     280/ 10/ 15 1017.3R
SHEBOYGAN LAKESH 0900   25 37  270/  9/ 13 1019.7R
PORT WASHINGTON  0900   26     280/  3/  9 1019.6S
MILWAUKEE LAKESH 0900   27     290/  9/ 11   N/A
KENOSHA   LAKESH 0900   28     290/  7/  8 1019.0F
$$

TC  - TEMPERATURE IN CELSIUS
VSB - VISIBILITY IN STATUTE MILES
WCI - WIND CHILL INDEX
HX  - HEAT INDEX




USA.gov is the U.S. government's official web portal to all federal, state and local government web resources and services.